Temp
10 10 10 10 10 10 10 10 9 9 10 11 14 14 14 14 14 15 15 14 14 14 13 13 13 13 13 14 13 12 12 12 13 13 14 14 15 14 13 16 16 18 19 21 21 21 20
10 10 10 10 10 10 10 10 9 9 10 12 14 15 14 14 15 15 15 15 15 14 14 13 13 14 14 13 12 12 12 13 14 14 13 13 11 11 11 14 18 19 20 21 21 22 21
9 9 9 10 10 10 10 10 9 9 11 14 15 15 15 15 15 15 16 16 16 15 14 14 14 14 14 12 13 13 13 13 14 14 13 12 11 11 13 18 20 20 19 20 20 21 21
9 9 9 9 10 10 10 10 10 10 13 14 14 14 15 15 15 16 16 16 16 15 15 14 14 14 14 13 13 14 14 14 14 14 13 12 12 11 15 19 20 19 19 17 20 21 20
9 9 9 9 9 9 10 10 10 10 12 14 14 14 14 15 15 16 16 16 16 15 15 15 14 16 14 14 15 14 14 15 15 14 13 13 14 14 17 17 17 19 16 18 19 20 21
9 9 9 9 9 9 9 9 10 10 10 14 14 14 14 15 15 16 16 16 16 16 15 15 16 15 15 14 14 14 15 14 15 14 13 14 14 15 16 16 15 17 17 19 18 19 20
9 9 9 9 9 9 11 11 10 9 13 14 14 13 14 15 15 16 17 16 16 16 16 16 15 15 15 15 15 15 14 15 16 15 14 16 15 14 16 18 20 20 19 19 19 21 20
8 9 9 9 9 10 11 12 13 14 14 14 14 13 13 14 15 16 16 17 14 13 15 16 16 16 16 15 16 16 15 14 14 12 13 15 13 17 17 18 18 19 20 18 19 20 20
8 8 10 11 11 11 11 12 13 14 14 14 14 14 14 14 15 15 15 13 12 12 15 16 17 17 16 16 15 15 16 14 14 15 12 11 16 17 17 19 19 19 20 18 18 20 21
8 8 10 10 11 11 11 12 13 14 14 15 14 14 14 14 14 15 14 12 12 12 15 16 17 16 17 16 16 16 16 15 17 15 14 15 18 18 19 18 17 19 18 20 19 18 15
8 9 10 10 10 11 11 11 12 14 14 14 14 14 14 14 14 15 12 12 12 12 14 17 17 18 17 17 16 16 15 16 16 17 17 14 15 16 16 16 16 17 19 20 19 19 17
8 8 9 10 10 11 11 11 12 14 14 14 14 14 15 14 14 12 12 12 12 14 13 16 18 17 18 18 17 17 17 16 17 17 17 16 16 15 15 17 17 18 19 20 21 18 14
8 8 9 10 10 11 11 11 12 13 15 15 14 14 14 13 13 12 12 13 14 13 17 16 16 17 18 17 18 17 16 16 15 13 12 16 16 16 16 17 17 17 18 14 14 14 14
8 8 9 10 10 11 11 11 12 13 15 15 14 13 14 13 12 12 12 14 13 15 17 17 17 17 17 16 17 18 17 15 15 16 14 13 14 15 15 15 14 17 17 14 16 14 13
8 9 9 10 10 10 11 11 11 13 14 15 14 13 14 13 13 12 13 12 12 16 16 16 17 17 18 18 16 18 15 15 15 15 14 15 15 16 15 15 15 17 14 17 15 16 12
8 9 9 9 10 10 11 11 11 13 14 14 14 15 15 14 14 12 15 14 16 15 15 16 17 18 17 17 17 18 17 15 15 16 16 16 16 16 17 15 16 16 17 15 13 16 18
9 9 9 10 10 10 10 11 11 13 15 14 14 16 15 14 13 15 13 15 16 15 15 15 16 17 18 17 18 17 16 15 14 15 15 16 17 16 16 17 16 16 17 17 15 14 14
9 9 9 10 10 10 10 11 11 12 15 14 14 16 15 14 16 17 15 15 12 16 15 16 15 16 16 17 17 17 16 15 14 14 15 15 14 14 16 15 15 15 16 17 13 16 16
9 9 9 10 10 10 10 11 11 12 12 12 15 16 16 15 16 15 15 15 15 16 16 16 16 16 16 16 16 16 16 14 14 14 13 13 16 13 15 15 15 15 16 17 16 16 16
9 9 10 10 10 10 10 10 11 11 13 12 14 14 16 16 16 17 17 16 15 14 15 15 15 16 16 17 17 16 17 14 13 14 12 12 15 15 14 16 15 16 16 16 16 12 16
10 10 10 10 10 10 10 10 11 12 13 13 14 15 13 15 15 16 16 16 16 16 14 15 16 16 16 16 17 17 17 15 14 12 14 13 14 12 13 15 15 15 15 15 14 15 15
10 10 10 9 10 10 10 10 11 12 14 14 12 13 13 16 15 16 13 16 17 16 16 16 15 16 16 15 15 15 15 15 14 14 15 14 13 15 12 14 13 13 13 14 15 15 15
10 10 10 10 10 9 10 10 11 12 13 13 12 12 12 13 16 16 16 16 16 15 15 15 15 15 15 14 13 13 13 14 14 13 14 14 13 12 13 14 13 13 14 13 15 15 15
10 10 9 9 10 9 9 10 10 11 11 10 10 10 13 15 15 16 16 15 15 15 15 15 14 15 12 13 13 12 13 13 13 13 13 12 14 11 9 13 11 15 14 13 15 16 15
9 9 9 9 9 10 9 9 10 10 10 10 9 9 11 13 14 16 15 15 14 13 13 14 14 11 12 13 12 13 12 12 13 12 12 12 12 11 10 12 15 14 13 14 14 15 14
7 8 8 8 8 9 9 9 9 10 10 9 9 9 10 11 12 13 14 14 13 14 12 12 11 11 12 12 13 14 15 15 12 10 11 11 11 11 12 12 14 15 14 15 15 12 14
5 6 6 6 6 8 8 9 8 9 9 10 9 9 10 11 12 12 12 12 13 13 13 12 11 10 11 11 12 12 13 14 13 14 10 10 10 10 10 11 13 14 13 14 14 13 14
4 4 4 5 6 6 5 6 7 8 8 9 9 9 9 10 11 11 12 12 12 11 12 11 11 10 10 11 12 13 13 13 12 14 12 11 10 10 11 13 11 12 13 13 13 14 14
4 4 4 4 4 4 4 5 5 6 7 8 8 8 8 8 10 10 11 11 11 12 11 11 11 12 12 10 11 11 11 11 12 12 12 11 13 13 13 12 13 12 14 14 13 12 13
Height
841 839 837 835 832 829 825 822 820 817 815 814 812 811 810 808 806 804 801 799 797 796 795 793 791 789 787 785 790 789 785 782 779 779 779 781 780 784 789 781 776 775 772 769 764 766 762
842 840 838 835 832 829 826 823 820 816 814 813 811 810 809 807 805 803 800 798 795 794 794 793 791 789 786 790 790 789 785 782 780 778 782 783 789 791 790 785 771 765 765 765 766 766 762
842 840 838 836 833 829 826 823 820 816 814 812 811 810 808 806 805 802 799 797 795 794 793 792 791 790 790 794 790 788 786 784 782 780 782 787 787 790 787 764 758 761 771 769 768 769 770
843 841 838 835 832 829 826 823 819 815 813 811 810 809 807 805 803 801 798 796 795 793 793 792 791 790 792 792 790 788 786 784 783 782 784 787 790 793 781 763 762 769 770 785 768 768 772
843 841 838 835 832 829 827 824 819 815 812 811 810 808 806 804 803 801 798 796 795 793 792 791 790 789 794 791 790 789 787 785 784 785 786 788 788 786 774 773 775 772 789 781 779 768 768
843 841 839 836 833 829 826 823 819 815 811 809 808 806 804 803 802 800 798 795 795 793 791 790 792 793 793 795 792 790 788 787 785 786 787 788 786 784 776 778 793 785 784 776 781 777 776
844 841 839 837 834 830 826 823 819 815 810 808 807 805 803 801 800 799 797 795 797 796 793 795 797 796 796 794 792 791 790 789 786 785 788 781 786 787 778 768 764 768 772 777 774 771 777
844 842 839 837 834 831 827 823 819 814 810 807 806 803 801 800 799 799 798 797 801 803 799 796 796 795 795 793 790 790 791 791 791 795 792 788 792 776 776 770 771 768 768 780 776 771 775
844 842 839 837 834 831 828 824 819 814 810 806 805 802 800 798 797 799 798 801 801 801 799 795 794 794 795 794 793 791 790 792 792 790 799 806 785 777 775 771 769 764 765 776 781 776 768
844 843 839 836 834 831 828 824 819 814 809 805 804 802 799 797 800 800 801 802 801 801 800 801 794 795 794 793 794 791 790 792 786 791 795 789 777 776 773 773 781 769 767 762 775 783 807
845 842 840 837 835 832 828 824 819 815 810 805 803 801 800 797 799 799 803 801 801 802 818 799 795 792 791 792 793 790 789 788 790 785 786 797 789 785 783 786 782 781 769 766 772 781 791
844 843 840 837 835 832 829 824 819 814 810 805 802 801 799 799 799 801 800 801 802 808 824 804 794 795 792 788 790 787 787 787 785 785 784 790 786 789 790 782 780 775 773 769 768 784 819
844 842 840 837 834 832 828 824 819 814 809 804 802 801 799 800 801 800 800 801 809 819 804 809 805 797 792 794 790 791 792 793 796 808 809 790 790 787 787 784 781 782 783 812 817 822 824
843 841 840 837 834 831 828 824 819 814 809 804 801 801 800 800 800 800 800 801 818 812 803 800 799 796 798 798 794 790 790 799 795 793 801 808 809 797 792 794 799 786 785 809 814 825 824
842 841 839 836 834 831 827 823 818 813 808 803 801 801 801 799 798 800 803 814 822 806 807 806 798 796 793 793 800 789 801 804 802 801 807 803 802 794 794 794 797 786 800 790 803 800 823
840 839 838 836 833 831 827 823 818 813 807 802 801 801 800 798 797 799 802 811 808 808 808 803 803 797 800 798 796 793 797 805 804 799 797 795 802 796 792 795 793 791 789 807 815 809 797
839 838 837 835 832 830 827 823 818 812 806 802 801 800 799 798 799 798 813 812 808 809 811 809 805 800 797 801 796 796 801 808 806 803 799 797 795 802 797 794 796 794 794 795 802 805 813
838 837 836 835 832 829 826 823 818 812 805 802 801 804 798 799 801 797 811 809 816 810 811 810 810 805 804 801 801 797 802 806 806 805 804 800 805 806 797 796 794 797 796 793 818 800 797
836 835 834 833 832 829 826 822 818 814 809 806 804 801 798 796 807 811 812 811 812 809 809 809 809 809 806 806 808 804 803 808 807 807 810 808 799 817 803 804 800 802 793 793 793 795 797
834 834 833 831 830 828 826 822 818 814 810 808 806 812 801 799 802 803 808 809 813 814 811 810 810 809 807 803 803 805 801 806 807 806 811 812 801 803 813 802 801 798 797 797 796 818 796
831 831 832 831 829 827 825 822 817 814 810 810 807 810 811 811 806 804 807 807 809 811 814 811 809 809 808 807 801 801 801 805 807 808 805 808 810 813 807 799 800 801 799 798 803 798 801
827 828 829 829 828 826 824 822 818 814 811 811 814 813 811 806 808 805 810 808 806 807 809 809 813 807 808 810 811 811 808 807 808 808 803 805 811 804 811 801 805 806 801 798 797 796 795
824 824 825 825 826 826 824 821 819 815 811 813 814 814 814 810 805 807 803 802 805 807 809 808 810 811 808 810 812 811 811 810 809 812 809 809 811 815 810 801 801 801 788 793 788 787 789
819 820 821 822 823 824 824 821 820 819 816 817 819 817 813 808 806 803 804 804 805 807 810 808 810 811 817 813 812 812 811 810 810 809 811 812 809 817 831 807 824 784 785 787 785 782 786
813 816 817 818 820 822 821 821 821 820 819 818 819 819 815 814 807 804 807 807 807 809 811 810 810 816 816 815 815 809 813 813 811 813 813 812 813 817 827 813 789 786 788 788 788 785 781
809 812 812 815 818 818 817 819 820 820 819 818 820 819 818 818 814 811 810 808 809 807 812 811 815 816 816 815 812 808 805 797 810 819 817 816 816 821 815 816 799 780 785 781 783 796 779
810 812 812 813 815 815 814 817 819 820 818 819 819 821 820 817 813 812 812 812 810 809 810 811 815 817 817 815 816 812 806 801 805 800 822 822 819 824 821 814 797 783 785 783 792 794 781
812 814 813 813 812 813 815 815 816 817 817 817 819 821 821 818 813 812 813 812 812 813 812 814 815 816 819 819 812 805 806 804 805 795 803 809 817 817 808 803 809 785 788 791 784 779 781
814 815 815 810 814 815 815 815 815 815 816 816 818 818 820 820 814 811 809 809 811 810 813 812 813 810 809 815 811 810 811 807 802 804 797 808 793 794 793 790 780 782 779 778 779 782 782
Wind_Speed
10 11 12 13 15 16 16 14 13 11 10 8 6 8 9 10 11 12 14 12 9 8 10 14 11 8 7 1 6 13 12 11 7 5 5 6 7 4 1 11 14 15 12 15 5 5 8
11 12 14 15 16 17 17 16 16 13 11 7 5 7 8 8 10 11 15 13 10 8 8 12 9 11 4 3 7 9 9 8 8 4 6 7 5 6 11 10 14 8 10 5 1 2 3
11 12 14 15 16 18 19 18 17 14 12 8 6 7 7 7 9 12 16 10 7 8 7 8 7 5 8 4 5 7 5 4 9 1 6 7 14 1 9 4 7 10 9 2 4 5 3
12 13 14 15 17 19 19 19 19 16 11 8 7 8 9 8 9 11 15 5 8 4 5 5 6 7 3 4 6 8 5 2 6 6 7 9 8 8 7 9 4 8 6 4 3 3 6
12 13 14 16 17 19 20 20 20 19 12 8 8 9 9 10 9 9 13 4 6 7 2 4 4 2 3 8 9 8 6 3 4 5 6 1 3 5 10 4 3 5 5 8 5 6 1
12 13 14 16 18 19 20 21 21 20 16 9 10 10 10 10 9 8 12 7 4 5 4 4 11 2 6 6 5 6 4 4 3 4 1 2 4 4 5 4 5 6 7 9 7 7 5
12 13 14 15 17 19 21 23 22 21 17 11 10 12 12 9 7 7 10 7 3 3 9 5 6 7 4 7 3 3 4 4 0 1 3 4 4 5 7 6 3 8 10 11 8 4 5
12 13 14 15 17 19 21 23 24 25 19 12 12 13 11 8 6 4 5 3 3 2 1 2 1 3 1 3 1 3 2 2 3 2 3 3 4 8 6 7 8 9 13 8 6 5 2
13 13 14 15 17 19 22 24 25 26 24 13 12 13 11 9 1 2 4 4 2 3 4 3 1 3 2 4 5 5 2 2 1 8 9 3 3 5 7 5 10 3 4 7 6 5 4
12 14 14 15 17 19 22 24 25 26 26 16 10 14 10 5 3 1 3 3 3 1 1 7 1 2 2 2 1 2 2 1 1 4 9 3 2 5 4 2 6 2 8 8 10 4 4
12 13 14 15 17 19 21 24 26 26 27 18 9 11 8 6 3 1 1 2 2 1 3 6 3 1 3 1 4 2 2 2 3 5 2 2 7 8 8 5 5 4 5 2 7 5 6
10 12 14 15 17 18 21 24 26 26 27 18 10 8 9 3 2 1 1 0 1 2 2 3 1 5 2 3 2 4 4 5 2 2 5 2 3 3 4 4 5 2 2 2 2 4 2
10 11 14 15 16 18 21 24 27 28 28 19 9 6 8 4 1 2 0 2 3 5 3 6 4 6 7 5 2 2 4 5 4 4 4 4 3 3 4 3 3 3 5 2 4 3 4
8 11 13 14 16 17 20 24 27 29 28 20 6 2 7 5 2 2 2 1 7 4 3 1 3 9 3 7 1 2 3 4 8 6 0 2 3 6 8 4 3 5 2 4 4 3 4
7 9 12 13 15 17 19 22 26 28 30 18 4 2 1 7 2 1 3 5 5 2 1 6 6 4 3 3 2 3 4 4 5 7 4 4 2 1 2 3 3 4 5 3 1 3 3
6 7 10 13 14 16 18 22 26 27 28 14 2 2 2 7 0 3 2 2 2 1 2 3 4 2 5 5 4 4 3 3 5 5 4 5 1 1 0 2 5 2 1 3 2 2 1
4 6 9 11 14 15 18 20 25 28 26 10 1 2 1 4 1 1 3 3 2 2 4 4 5 4 2 3 3 3 4 2 6 6 7 5 2 2 2 1 3 3 1 3 2 2 2
4 6 8 11 14 16 17 19 23 28 26 10 3 1 2 1 1 2 2 4 2 3 1 2 3 4 4 5 5 2 3 3 5 5 5 3 3 2 2 3 3 2 3 2 2 5 1
7 8 8 10 12 15 17 18 22 25 24 8 4 2 1 3 2 2 2 2 2 0 1 3 2 3 4 4 2 4 3 1 5 4 3 5 1 2 2 2 1 4 3 2 3 2 3
9 10 10 9 10 12 15 18 20 22 18 6 3 3 2 2 2 2 1 2 1 1 1 1 2 3 3 2 2 3 1 2 1 3 3 3 3 1 2 1 2 2 3 4 2 1 3
11 10 11 12 10 10 12 16 19 21 15 4 1 1 1 3 2 3 1 1 2 1 2 2 3 3 3 2 2 1 1 3 3 3 2 2 2 3 6 5 1 4 4 5 6 5 1
15 12 12 13 10 9 10 13 17 19 9 3 2 2 1 1 1 3 4 4 3 3 2 4 3 2 3 3 4 3 5 4 4 3 2 3 2 1 3 2 4 6 8 8 6 6 7
18 15 13 12 10 10 9 10 14 18 7 6 3 2 1 1 2 2 1 5 2 1 3 1 3 4 5 2 4 3 3 2 1 3 4 2 3 3 3 4 7 6 5 9 4 4 3
20 18 16 13 10 10 7 7 9 12 13 4 4 3 2 2 1 1 1 1 3 2 2 3 2 2 2 4 4 4 5 3 4 2 0 3 2 1 3 4 2 4 3 3 9 3 8
18 19 18 14 13 12 8 4 5 7 10 9 5 4 2 3 3 1 1 2 2 4 2 1 3 3 4 3 3 3 2 2 2 3 4 1 3 2 1 2 7 2 2 2 4 5 8
15 12 12 12 10 13 11 7 4 3 5 6 7 6 3 2 1 2 3 3 2 3 3 3 2 1 1 2 2 2 2 2 2 3 1 2 3 1 0 2 4 2 4 2 3 4 6
8 7 8 9 8 8 8 7 7 5 1 3 2 5 2 1 2 3 1 2 3 2 1 3 4 2 2 2 2 4 3 2 3 3 4 2 2 4 4 4 6 4 5 1 2 4 4
10 9 9 6 5 7 9 7 4 2 4 2 1 4 1 2 3 2 1 2 1 2 2 1 1 1 2 2 2 3 2 2 1 2 5 6 5 4 3 3 7 6 3 5 4 2 4
9 7 7 11 8 8 6 6 7 7 5 5 3 3 3 3 3 4 9 11 9 3 1 1 1 1 2 2 2 2 2 1 3 3 4 3 5 3 5 4 1 7 1 2 1 5 4
Wind_Direction
14 12 14 14 14 13 9 2 355 348 344 338 328 334 334 338 344 351 349 345 318 305 342 354 351 325 317 282 12 333 335 328 316 245 261 226 246 230 150 211 207 220 204 241 327 358 291
15 12 13 13 14 15 11 5 2 360 352 345 329 331 334 337 343 347 347 345 346 315 311 347 336 356 276 59 333 342 349 340 340 275 78 72 57 51 306 254 201 203 210 199 332 182 283
15 13 12 12 11 11 10 7 3 3 358 352 328 324 325 326 335 341 348 346 352 347 316 336 352 326 47 22 344 352 8 339 357 112 112 99 63 3 298 223 171 204 187 106 234 154 167
13 13 10 10 8 11 8 5 5 0 1 354 339 320 317 311 322 337 346 325 14 345 359 344 8 317 66 328 357 12 358 31 53 57 100 122 114 264 250 284 175 189 141 181 145 116 163
14 9 9 9 9 7 5 4 3 359 349 349 344 323 311 312 311 326 343 330 3 28 304 357 313 252 32 342 18 0 23 54 94 101 80 87 184 250 269 212 153 182 174 190 142 201 70
15 10 8 10 7 6 7 5 2 360 355 341 339 335 310 305 306 319 335 325 293 7 298 282 36 186 35 2 355 326 19 6 344 136 100 171 232 238 256 200 166 198 183 201 145 180 221
13 13 10 9 7 8 9 8 4 2 360 352 341 339 325 299 301 319 339 310 256 199 52 68 41 81 357 327 298 42 28 90 33 339 29 239 268 210 243 234 5 201 200 203 102 128 195
12 11 11 11 12 11 8 7 7 3 360 355 350 345 339 320 301 322 348 3 41 333 246 184 284 277 159 297 43 62 333 30 29 32 353 327 307 15 334 310 289 289 208 104 75 158 167
9 8 13 14 14 11 8 6 6 4 359 350 357 352 347 335 291 55 79 63 356 4 269 153 60 353 15 342 346 56 339 139 246 94 86 193 297 285 267 273 304 68 176 141 143 197 223
7 5 11 10 10 9 7 5 4 3 0 354 356 0 358 22 87 117 65 348 17 53 81 2 101 114 159 245 42 65 337 246 254 80 173 230 324 349 240 211 12 5 340 149 141 152 145
360 5 5 6 8 7 5 3 3 3 1 356 349 2 5 30 350 53 268 340 342 303 60 326 6 118 193 16 310 173 258 234 3 312 241 347 354 358 44 2 344 355 293 248 157 147 75
350 355 2 3 4 5 2 1 360 1 359 354 350 358 7 44 50 99 305 52 354 38 6 352 322 338 243 140 124 271 203 215 232 35 64 110 235 37 328 309 342 297 309 64 115 95 33
346 348 355 359 1 1 1 359 358 359 358 350 343 359 26 19 41 336 57 220 38 62 241 343 338 332 305 2 68 35 344 49 41 34 3 10 62 123 338 319 229 259 229 54 29 27 231
336 349 357 356 357 358 359 357 356 356 356 352 344 16 25 39 330 326 242 238 59 267 7 20 291 294 36 351 122 0 310 46 28 345 158 118 0 9 341 65 319 315 40 107 174 199 218
323 348 353 354 352 353 355 356 355 354 355 353 3 17 235 319 333 72 272 55 184 21 339 327 281 303 118 85 247 317 84 24 36 9 8 359 48 180 48 358 309 311 38 69 348 218 88
317 345 346 351 351 350 352 354 354 354 355 353 16 261 189 339 31 135 53 105 100 312 314 267 18 3 14 32 348 26 50 11 354 11 341 348 57 7 24 241 235 14 336 36 279 248 142
313 334 341 347 351 350 351 353 354 354 356 4 34 285 295 338 241 231 75 52 65 73 337 326 359 328 18 4 339 40 47 95 6 331 300 353 239 207 261 327 24 20 68 233 231 151 135
320 321 335 340 347 350 352 354 357 357 359 5 302 320 336 6 20 14 52 8 340 42 155 316 296 318 336 352 360 58 46 55 4 305 333 69 292 174 88 114 47 316 310 284 104 325 85
284 298 316 329 340 348 354 357 359 1 0 348 323 291 347 75 34 72 144 110 345 270 47 340 337 13 344 338 323 19 31 39 16 14 20 348 301 340 344 49 170 262 175 321 302 5 257
273 289 300 317 328 343 352 356 360 360 358 352 316 1 347 68 197 5 173 94 142 167 266 292 296 226 266 263 139 334 6 130 30 28 324 300 294 73 189 255 321 230 192 232 306 92 295
263 274 291 306 318 335 350 356 2 -0 358 2 5 58 81 321 59 89 235 52 163 206 235 251 217 229 348 289 274 54 276 184 199 133 234 16 307 48 284 277 280 267 280 201 219 246 172
253 259 276 295 303 322 340 354 1 5 11 53 12 2 189 223 257 236 144 194 207 140 230 154 271 47 327 314 4 322 355 33 47 224 273 164 259 280 289 68 262 265 247 245 242 249 270
250 255 265 279 290 306 325 349 2 13 35 35 8 261 241 183 202 269 151 122 133 49 137 304 341 312 240 30 355 359 318 293 335 344 335 332 330 16 281 339 305 292 239 202 199 197 194
249 252 256 258 267 280 303 338 1 19 37 39 5 295 293 276 241 298 104 82 171 195 324 104 304 293 59 286 266 251 260 261 268 201 342 312 275 81 270 338 357 236 61 345 194 200 215
232 240 246 250 248 249 262 285 339 8 30 57 24 348 352 284 23 256 224 260 128 168 217 296 95 47 333 300 298 275 194 228 193 41 298 224 309 262 165 260 271 188 229 148 132 284 202
145 169 200 212 224 234 241 249 269 326 20 58 30 21 308 336 70 354 314 22 293 212 151 138 115 13 277 262 271 267 277 354 188 169 182 288 287 350 214 254 261 144 136 54 102 275 137
92 100 102 101 122 167 172 199 231 244 308 52 14 6 295 301 56 354 318 344 356 302 273 140 155 164 356 237 241 223 243 121 240 219 170 174 199 218 236 257 288 134 147 213 129 241 149
68 64 70 78 77 73 62 61 84 182 228 186 222 288 313 317 279 178 252 266 225 249 307 173 74 338 152 247 246 249 229 199 314 181 176 176 173 207 214 240 271 139 79 178 184 60 136
56 52 53 53 44 50 52 41 25 15 10 200 204 248 232 243 281 252 239 245 238 233 174 198 149 210 242 199 292 353 288 223 238 254 356 251 201 213 194 216 118 195 59 186 112 177 195